| time (UTC) | temp C | wind direction | speed KPH | gust KPH | rain 1hr cm | rain 24hr cm | rain mn cm | humidity % | barometer mb |
| 20260504050015 | 5 | 0.0 | 1.6 | 0.00 | 0.00 | 0.00 | 67 | 1012.0 | |
| 20260504045015 | 5 | 0.0 | 1.6 | 0.00 | 0.00 | 0.00 | 68 | 1012.0 | |
| 20260504044015 | 6 | 0.0 | 0.0 | 0.00 | 0.00 | 0.00 | 69 | 1012.0 | |
| 20260504043015 | 6 | 0.0 | 0.0 | 0.00 | 0.00 | 0.00 | 68 | 1012.0 | |
| 20260504042017 | 6 | 0.0 | 0.0 | 0.00 | 0.00 | 0.00 | 67 | 1012.0 | |
| 20260504041017 | 6 | 0.0 | 0.0 | 0.00 | 0.00 | 0.00 | 65 | 1012.0 | |
| 20260504040037 | 6 | 0.0 | 0.0 | 0.00 | 0.00 | 0.00 | 64 | 1012.0 | |
| 20260504035016 | 6 | 0.0 | 0.0 | 0.00 | 0.00 | 0.00 | 66 | 1012.0 | |
| 20260504034036 | 6 | 0.0 | 0.0 | 0.00 | 0.00 | 0.00 | 62 | 1012.0 | |
| 20260504033016 | 6 | 0.0 | 0.0 | 0.00 | 0.00 | 0.00 | 64 | 1012.0 | |
| 20260504032016 | 7 | 0.0 | 0.0 | 0.00 | 0.00 | 0.00 | 64 | 1012.0 | |
| 20260504031016 | 7 | 0.0 | 0.0 | 0.00 | 0.00 | 0.00 | 64 | 1012.1 | |
| 20260504030015 | 7 | 0.0 | 0.0 | 0.00 | 0.00 | 0.00 | 63 | 1012.0 | |
| 20260504025015 | 7 | 0.0 | 0.0 | 0.00 | 0.00 | 0.00 | 62 | 1012.0 | |
| 20260504024016 | 7 | 0.0 | 0.0 | 0.00 | 0.00 | 0.00 | 62 | 1011.9 | |
| 20260504023016 | 7 | 0.0 | 0.0 | 0.00 | 0.00 | 0.00 | 61 | 1011.9 | |
| 20260504022015 | 7 | 0.0 | 0.0 | 0.00 | 0.00 | 0.00 | 60 | 1011.8 | |
| 20260504021015 | 7 | 0.0 | 0.0 | 0.00 | 0.00 | 0.00 | 61 | 1011.7 | |
| 20260504020015 | 7 | 0.0 | 0.0 | 0.00 | 0.00 | 0.00 | 60 | 1011.7 | |
| 20260504015035 | 7 | 0.0 | 0.0 | 0.00 | 0.00 | 0.00 | 59 | 1011.5 | |
| 20260504014016 | 8 | 0.0 | 0.0 | 0.00 | 0.00 | 0.00 | 58 | 1011.5 | |
| 20260504013035 | 8 | 0.0 | 0.0 | 0.00 | 0.00 | 0.00 | 57 | 1011.5 | |
| 20260504012015 | 8 | 0.0 | 0.0 | 0.00 | 0.00 | 0.00 | 58 | 1011.4 | |
| 20260504011035 | 9 | 0.0 | 0.0 | 0.00 | 0.00 | 0.00 | 55 | 1011.4 | |
| 20260504010015 | 9 | 0.0 | 0.0 | 0.00 | 0.00 | 0.00 | 51 | 1011.4 | |
| 20260504005017 | 10 | 0.0 | 0.0 | 0.00 | 0.00 | 0.00 | 52 | 1011.3 | |
| 20260504004037 | 11 | 0.0 | 0.0 | 0.00 | 0.00 | 0.00 | 50 | 1011.0 | |
| 20260504003017 | 11 | 0.0 | 0.0 | 0.00 | 0.00 | 0.00 | 45 | 1011.0 | |
| 20260504002037 | 12 | 0.0 | 0.0 | 0.00 | 0.00 | 0.00 | 42 | 1011.0 | |
| 20260504001017 | 13 | 0.0 | 0.0 | 0.00 | 0.00 | 0.00 | 40 | 1011.0 | |
| 20260504000017 | 13 | 0.0 | 0.0 | 0.00 | 0.00 | 0.00 | 31 | 1010.9 | |
| 20260503235017 | 14 | 0.0 | 4.8 | 0.00 | 0.00 | 0.00 | 30 | 1010.8 | |
| 20260503234017 | 14 | 315 | 1.6 | 9.7 | 0.00 | 0.00 | 0.00 | 28 | 1010.8 |
| 20260503233017 | 14 | 0.0 | 3.2 | 0.00 | 0.00 | 0.00 | 28 | 1010.6 | |
| 20260503232017 | 15 | 315 | 1.6 | 6.4 | 0.00 | 0.00 | 0.00 | 28 | 1010.5 |
| 20260503231017 | 15 | 315 | 1.6 | 9.7 | 0.00 | 0.00 | 0.00 | 28 | 1010.5 |
| 20260503230037 | 15 | 315 | 4.8 | 11.3 | 0.00 | 0.00 | 0.00 | 27 | 1010.5 |
| 20260503225017 | 15 | 315 | 6.4 | 16.1 | 0.00 | 0.00 | 0.00 | 26 | 1010.4 |
| 20260503224017 | 16 | 315 | 4.8 | 16.1 | 0.00 | 0.00 | 0.00 | 26 | 1010.5 |
| 20260503223017 | 17 | 293 | 6.4 | 22.5 | 0.00 | 0.00 | 0.00 | 24 | 1010.5 |
| 20260503222017 | 17 | 293 | 6.4 | 14.5 | 0.00 | 0.00 | 0.00 | 25 | 1010.7 |
| 20260503221017 | 17 | 293 | 6.4 | 16.1 | 0.00 | 0.00 | 0.00 | 24 | 1010.8 |
| 20260503220017 | 17 | 293 | 3.2 | 9.7 | 0.00 | 0.00 | 0.00 | 22 | 1010.8 |
| 20260503215017 | 17 | 293 | 4.8 | 11.3 | 0.00 | 0.00 | 0.00 | 24 | 1010.9 |
| 20260503214017 | 17 | 270 | 6.4 | 17.7 | 0.00 | 0.00 | 0.00 | 23 | 1010.9 |
| 20260503213017 | 17 | 293 | 4.8 | 11.3 | 0.00 | 0.00 | 0.00 | 25 | 1010.9 |
| 20260503212017 | 17 | 293 | 3.2 | 8.0 | 0.00 | 0.00 | 0.00 | 23 | 1010.8 |
| 20260503211017 | 17 | 293 | 3.2 | 14.5 | 0.00 | 0.00 | 0.00 | 26 | 1010.7 |
| 20260503210017 | 17 | 293 | 4.8 | 14.5 | 0.00 | 0.00 | 0.00 | 27 | 1010.7 |
| 20260503205017 | 17 | 293 | 4.8 | 11.3 | 0.00 | 0.00 | 0.00 | 24 | 1010.8 |
| 20260503204017 | 16 | 338 | 4.8 | 16.1 | 0.00 | 0.00 | 0.00 | 24 | 1010.8 |
| 20260503203037 | 17 | 248 | 3.2 | 11.3 | 0.00 | 0.00 | 0.00 | 25 | 1010.9 |
| 20260503202016 | 17 | 270 | 4.8 | 16.1 | 0.00 | 0.00 | 0.00 | 26 | 1011.0 |
| 20260503201017 | 17 | 248 | 6.4 | 24.1 | 0.00 | 0.00 | 0.00 | 24 | 1011.2 |
| 20260503200017 | 16 | 315 | 4.8 | 14.5 | 0.00 | 0.00 | 0.00 | 26 | 1011.2 |
| 20260503195017 | 15 | 315 | 1.6 | 6.4 | 0.00 | 0.00 | 0.00 | 28 | 1011.4 |
| 20260503194036 | 16 | 270 | 4.8 | 11.3 | 0.00 | 0.00 | 0.00 | 25 | 1011.5 |
| 20260503193037 | 16 | 270 | 8.0 | 20.9 | 0.00 | 0.00 | 0.00 | 25 | 1011.5 |
| 20260503192016 | 16 | 338 | 8.0 | 22.5 | 0.00 | 0.00 | 0.00 | 25 | 1011.8 |
| 20260503191016 | 16 | 315 | 4.8 | 16.1 | 0.00 | 0.00 | 0.00 | 26 | 1011.8 |
| 20260503190016 | 16 | 293 | 8.0 | 20.9 | 0.00 | 0.00 | 0.00 | 26 | 1011.8 |
| 20260503185016 | 16 | 270 | 8.0 | 22.5 | 0.00 | 0.00 | 0.00 | 25 | 1012.0 |
| 20260503184016 | 16 | 293 | 6.4 | 17.7 | 0.00 | 0.00 | 0.00 | 25 | 1012.1 |
| 20260503183016 | 16 | 315 | 6.4 | 19.3 | 0.00 | 0.00 | 0.00 | 23 | 1012.1 |
| 20260503182016 | 16 | 293 | 4.8 | 14.5 | 0.00 | 0.00 | 0.00 | 24 | 1012.0 |
| 20260503181016 | 16 | 293 | 6.4 | 16.1 | 0.00 | 0.00 | 0.00 | 25 | 1012.3 |
| 20260503180016 | 15 | 270 | 4.8 | 17.7 | 0.00 | 0.00 | 0.00 | 26 | 1012.3 |
| 20260503175016 | 15 | 248 | 3.2 | 16.1 | 0.00 | 0.00 | 0.00 | 26 | 1012.5 |
| 20260503174016 | 15 | 315 | 6.4 | 24.1 | 0.00 | 0.00 | 0.00 | 24 | 1012.5 |
| 20260503173016 | 15 | 293 | 6.4 | 19.3 | 0.00 | 0.00 | 0.00 | 26 | 1012.5 |
| 20260503172016 | 14 | 270 | 9.7 | 25.7 | 0.00 | 0.00 | 0.00 | 26 | 1012.6 |
| 20260503171036 | 14 | 293 | 4.8 | 14.5 | 0.00 | 0.00 | 0.00 | 27 | 1012.7 |
| 20260503131015 | 8 | 315 | 4.8 | 16.1 | 0.00 | 0.00 | 0.00 | 50 | 1014.1 |
| 20260503081017 | 2 | 0.0 | 0.0 | 0.00 | 0.00 | 0.00 | 74 | 1012.0 | |
| 20260503080539 | 3 | 0.0 | 0.0 | 0.00 | 0.00 | 0.00 | 72 | 1012.0 |